Tiempo atmosférico en la estación meteorológica de Puerto de Navacerrada, Madrid (1894 m.)



Fecha
DESCASC
Temp. máxima en grados centígrados (hora)
DESCASC
Temp. mínima en grados centígrados (hora)
DESCASC
Temp. media en grados centígrados
DESCASC
Racha de viento máxima en m/sg (hora)
DESCASC
Velocidad máxima media en intervalos de 10 minutos(hora)
DESCASC
Precipitaciones diarias en mm
DESCASC
Precipitaciones de 00:00 a 06:00 en mm
DESCASC
Precipitaciones de 06:00 a 12:00 en mm
DESCASC
Precipitaciones de 12:00 a 18:00 en mm
DESCASC
Precipitaciones de 18:00 a 24:00 en mm
DESCASC
17-09-2020 13.2 (14:50) 9.7 (23:10) 11.4 18.89 (07:40) 10.83 (11:40) 23.8 2 3 0 18.8
16-09-2020 20.2 (16:20) 11.2 (23:59) 15.7 17.22 (23:30) 6.67 (23:50) 3.6 0 0 0 3.6
15-09-2020 17.6 (17:10) 10.6 (07:00) 14.1 11.39 (16:20) 7.22 (00:30) 7.8 7.8 0 0 0
14-09-2020 18.8 (17:00) 12 (00:00) 15.4 20 (04:50) 11.39 (04:50) 0.6 0 0 0 0.6
13-09-2020 24.6 (14:20) 13.6 (00:00) 19.1 14.17 (16:10) 8.33 (23:50) 0 0 0 0 0
12-09-2020 24.5 (13:20) 14.4 (00:00) 19.4 7.22 (14:20) 4.44 (19:50) 0 0 0 0 0
11-09-2020 22.7 (16:50) 12.7 (00:00) 17.7 7.22 (17:30) 4.72 (23:40) 0 0 0 0 0
10-09-2020 20.9 (16:00) 10.9 (00:00) 15.9 8.33 (16:40) 4.17 (04:40) 0 0 0 0 0
09-09-2020 20.3 (16:50) 8.5 (00:00) 14.4 8.61 (04:20) 5.28 (04:00) 0 0 0 0 0
08-09-2020 18.8 (14:10) 7.6 (00:00) 13.2 10 (11:20) 6.39 (22:00) 0 0 0 0 0
07-09-2020 17 (16:40) 7.3 (07:50) 12.2 9.17 (18:00) 6.39 (02:00) 0 0 0 0 0
06-09-2020 22.7 (12:10) 12.8 (00:00) 17.8 10.83 (02:20) 6.39 (04:40) 0 0 0 0 0
05-09-2020 25.2 (13:20) 14.6 (00:00) 19.9 7.5 (03:20) 5.56 (03:20) 0 0 0 0 0
04-09-2020 24.1 (15:50) 11.6 (00:00) 17.9 12.22 (03:10) 7.5 (03:40) 0 0 0 0 0
03-09-2020 23.6 (15:30) 11.8 (00:00) 17.7 7.22 (17:00) 4.17 (02:50) 0 0 0 0 0
02-09-2020 19.7 (17:20) 10 (00:00) 14.9 8.33 (01:10) 3.89 (20:50) 0 0 0 0 0
01-09-2020 18.7 (16:00) 10.2 (00:00) 14.5 6.94 (17:50) 3.33 (21:40) 0 0 0 0 0
31-08-2020 17.2 (16:40) 4.9 (00:00) 11.1 7.22 (18:40) 3.06 (11:10) 0 0 0 0 0
30-08-2020 12.1 (16:50) 1.4 (00:00) 6.8 10.83 (01:30) 7.5 (00:20) 0 0 0 0 0
29-08-2020 11.5 (16:00) 2.8 (00:00) 7.1 14.44 (16:00) 6.39 (23:59) 0 0 0 0 0
28-08-2020 19.3 (15:40) 8.8 (00:00) 14 12.78 (20:40) 5.28 (23:10) 0 0 0 0 0
27-08-2020 26.6 (16:20) 16.3 (00:00) 21.4 10 (16:20) 3.61 (16:20) 0 0 0 0 0
26-08-2020 27.8 (16:10) 16.8 (00:00) 22.3 8.61 (14:10) 5 (14:10) 0 0 0 0 0
25-08-2020 27 (16:50) 16.6 (00:00) 21.8 8.89 (15:00) 5 (08:10) 0 0 0 0 0
24-08-2020 24.5 (16:10) 13.7 (00:00) 19.1 7.5 (15:20) 3.61 (17:00) 0 0 0 0 0
23-08-2020 22.7 (15:20) 12.1 (00:00) 17.4 7.22 (17:20) 3.61 (21:10) 0 0 0 0 0
22-08-2020 22.5 (16:00) 10.6 (00:00) 16.6 7.5 (16:30) 3.89 (01:20) 0 0 0 0 0
21-08-2020 22.3 (14:20) 13.7 (00:00) 18 13.89 (02:40) 8.89 (08:50) 0 0 0 0 0

Gráficas

Temp. máximas Temp. mínimas Temp. medias Precipitaciones Rachas de viento máximas Velocidades máximas media en intervalos de 10 minutos

Datos horarios

Fecha y hora oficial Temperatura (ºC) Velocidad del viento (km/h) Dirección del viento Racha (km/h) Dirección de racha Precipitación (mm) Presión (hPa) Tendencia (hPa) Humedad (%)
2020-09-19 23:00:00 8.1 14 Oeste 27 Oeste 0.4 814.6 1.2 100
2020-09-19 22:00:00 7.6 7 Noroeste 20 Noroeste 0.2 814.2 1.1 100
2020-09-19 21:00:00 7.9 6 Noroeste 21 Noroeste 0 813.8 0.9 100
2020-09-19 20:00:00 8.7 7 Oeste 24 Oeste 0 813.4 0.6 99
2020-09-19 19:00:00 9.5 5 Oeste 29 Oeste 0 813.1 0.3 99
2020-09-19 18:00:00 9.1 9 Noroeste 24 Noroeste 0 812.9 0.3 97
2020-09-19 17:00:00 9 10 Oeste 27 Oeste 0 812.8 0.1 100
2020-09-19 16:00:00 8.9 11 Oeste 35 Oeste 1 812.8 0.3 100
2020-09-19 15:00:00 8.5 6 Noroeste 21 Oeste 1.6 812.6 0.3 100
2020-09-19 14:00:00 8.6 6 Oeste 36 Oeste 0 812.7 0.7 100
2020-09-19 13:00:00 8.5 16 Oeste 46 Oeste 0 812.5 1.3 100
2020-09-19 12:00:00 8.1 24 Oeste 43 Sudoeste 0 812.3 1.6 100
2020-09-19 11:00:00 8 19 Sudoeste 37 Sudoeste 0.4 812 -- 100
2020-09-19 10:00:00 8 23 Sudoeste 42 Sudoeste 1.2 811.2 -- 100
2020-09-19 09:00:00 7.7 24 Sudoeste 45 Sudoeste 2.2 810.7 -- 100
2020-09-19 08:00:00 7.6 24 Sudoeste 44 Sudoeste 2.6 810.3 -- 100
2020-09-19 07:00:00 7.6 23 Sudoeste 57 Sudoeste 2.2 809.9 -- 100
2020-09-19 06:00:00 7.3 34 Sudoeste 67 Sudoeste 3.8 809.4 -- 100
2020-09-19 05:00:00 6.9 33 Sudoeste 57 Sur 1.2 809.5 -- 100
2020-09-19 04:00:00 6.8 31 Sudoeste 53 Sur 0 810 -- 100
2020-09-19 03:00:00 7.4 22 Sudoeste 55 Sudoeste 0.4 810.1 -- 100
2020-09-19 02:00:00 7.8 19 Sur 65 Sur 5.4 810 -- 100
2020-09-19 01:00:00 8.4 36 Sur 71 Sur 9.6 809.2 -- 100
2020-09-19 00:00:00 8.1 19 Sur 57 Sudeste 7.4 809.5 -- 100
2020-09-18 23:00:00 7.6 29 Sudeste 52 Sudeste 0.2 810.3 -- 100
2020-09-18 22:00:00 6.8 28 Sur 55 Sur 0 810.4 -- 100
2020-09-18 21:00:00 6.6 18 Sur 47 Sur 0 809.8 -- 98
2020-09-18 20:00:00 6.7 17 Sudeste 44 Sudeste 0 809.8 -- 97
2020-09-18 19:00:00 6.6 18 Sur 72 Sudoeste 7.2 810.2 -- 100
2020-09-18 18:00:00 8.1 19 Sudeste 51 Sur 1.2 810.6 -- 100
2020-09-18 17:00:00 8.2 22 Sur 51 Sur 4.2 810.6 -- 100
2020-09-18 16:00:00 9.7 12 Sudeste 39 Sur 0 810.2 -- 100
2020-09-18 15:00:00 9.9 21 Sur 52 Sudoeste 0 810.7 -- 99
2020-09-18 14:00:00 10 27 Sur 52 Sudoeste 0 810.7 -- 100
2020-09-18 13:00:00 9 30 Sudoeste 53 Sudoeste 0 810.7 -- 100
2020-09-18 12:00:00 8.5 28 Sur 52 Sudoeste 1.4 811.2 -- 100
2020-09-18 11:00:00 8.7 17 Sudoeste 66 Sur 0.4 810.8 -- 100
2020-09-18 10:00:00 9.2 35 Sur 80 Sur 0.4 809.8 -- 100
2020-09-18 09:00:00 9.2 30 Sudoeste 68 Sur 0 809.5 -- 100
2020-09-18 08:00:00 9.3 30 Sur 70 Sudoeste 0.2 809.1 -- 100
2020-09-18 07:00:00 9.1 30 Sudoeste 80 Sur 8.4 809.1 -- 100
2020-09-18 06:00:00 10 37 Sur 82 Sur 0 808.9 -- 100
2020-09-18 05:00:00 10.7 31 Sur 77 Sur 0.4 809.2 -- 100
2020-09-18 04:00:00 10.2 37 Sudeste 78 Sudeste 11.8 809.5 -- 100
2020-09-18 03:00:00 10.8 30 Sudeste 69 Sudeste 2 809.7 -- 100
2020-09-18 02:00:00 10.5 27 Sudeste 63 Sur 0.4 810.7 -- 100
2020-09-18 01:00:00 10.2 20 Sudoeste 50 Sur 1.8 811 -- 100
2020-09-18 00:00:00 9.9 20 Sur 68 Sur 1.4 811.4 -- 100
2020-09-17 23:00:00 10 34 Sudoeste 68 Sudoeste 10.8 812.4 -- 100
2020-09-17 22:00:00 11.1 15 Sur 57 Sur 1 812 -- 100
2020-09-17 21:00:00 11.1 12 Sur 48 Sur 5.6 812.2 -- 100
2020-09-17 20:00:00 12.5 18 Sudeste 40 Sudeste 0 811.9 -- 96
2020-09-17 19:00:00 12.6 26 Sur 58 Sur 0 812.2 -- 95
2020-09-17 18:00:00 12.8 22 Sur 64 Sur 0 812.2 -- 94
2020-09-17 17:00:00 12.5 31 Sur 61 Sur 0 812.2 -- 97
2020-09-17 16:00:00 12.3 24 Sudeste 63 Sur 0 812.5 -- 95
2020-09-17 15:00:00 12.8 28 Sudeste 57 Sudeste 0 813 -- 93
2020-09-17 14:00:00 11.9 30 Sudeste 52 Sudeste 0 813.3 -- 96
2020-09-17 13:00:00 11.2 24 Sur 60 Sur 0 813.6 -- 100
2020-09-17 12:00:00 10.8 33 Sudeste 60 Sudeste 0 813.5 -- 100
2020-09-17 11:00:00 10.5 22 Sudeste 54 Sur 0.2 813.7 -- 100
2020-09-17 10:00:00 10.3 29 Sur 55 Sur 0 813.4 -- 100
2020-09-17 09:00:00 10.1 26 Sudeste 51 Sudeste 1 813.4 -- 100
2020-09-17 08:00:00 10 19 Sudeste 68 Sudeste 1.8 813.3 -- 100
2020-09-17 07:00:00 10.2 27 Sur 63 Sur 0 812.6 -- 100
2020-09-17 06:00:00 10 25 Sudeste 47 Sudeste 0.2 813.4 -- 99
2020-09-17 05:00:00 9.8 18 Sudeste 41 Sudeste 0.2 814 -- 98
2020-09-17 04:00:00 10.4 17 Sur 41 Sur 0.2 814.8 -- 95
2020-09-17 03:00:00 10.9 18 Sudeste 34 Sudeste 0 815.3 -- 89
2020-09-17 02:00:00 11.6 24 Sudoeste 54 Sur 0 815.9 -- 84
2020-09-17 01:00:00 10.6 24 Sudeste 43 Sudeste 1.4 815.5 -- 84
2020-09-17 00:00:00 11.2 24 Sudeste 62 Sur 3.6 817.2 -- 90
2020-09-16 23:00:00 16.5 8 Sudeste 36 Sudeste 0 816.3 -- 51
2020-09-16 22:00:00 16.6 20 Sur 44 Sur 0 816.2 -- 51
2020-09-16 21:00:00 16.2 19 Sudeste 35 Sur 0 816.1 -- 55
2020-09-16 20:00:00 16.5 14 Sudeste 36 Sudeste 0 816.3 -- 55
2020-09-16 19:00:00 17.5 15 Sudeste 43 Sudeste 0 816.3 -- 51
2020-09-16 18:00:00 19 19 Sudeste 36 Sudeste 0 816.5 -- 46
2020-09-16 17:00:00 19.3 15 Sudeste 35 Sudeste 0 816.8 -- 47
2020-09-16 16:00:00 19.7 14 Sudeste 36 Sur 0 817.2 -- 47
2020-09-16 15:00:00 18.5 15 Sudeste 36 Sur 0 817.6 -- 54
2020-09-16 14:00:00 18.8 21 Sudeste 40 Sudeste 0 818.2 -- 56
2020-09-16 13:00:00 18.6 15 Sudeste 31 Sudeste 0 818.4 -- 53
2020-09-16 12:00:00 18.5 15 Sudeste 32 Sur 0 818.6 -- 54
2020-09-16 11:00:00 18.6 12 Sudeste 31 Sudeste 0 818.5 -- 55
2020-09-16 10:00:00 16.1 18 Sudeste 34 Sudeste 0 818.5 -- 62
2020-09-16 09:00:00 13.7 18 Sudeste 33 Sudeste 0 818.4 -- 70
2020-09-16 08:00:00 12.6 15 Sudeste 27 Sudeste 0 818.1 -- 76
2020-09-16 07:00:00 12.2 10 Sudeste 18 Sudeste 0 818.2 -- 76
2020-09-16 06:00:00 12.1 9 Sudeste 14 Sudeste 0 818.4 -- 76
2020-09-16 05:00:00 13 13 Sur 24 Sudoeste 0 818.9 -- 71
2020-09-16 04:00:00 13.4 13 Sudoeste 28 Sudoeste 0 819 -- 71
2020-09-16 03:00:00 13.3 16 Sur 23 Sur 0 819.1 -- 72
2020-09-16 02:00:00 12.4 8 Sudoeste 15 Sudoeste 0 819.5 -- 75
2020-09-16 01:00:00 13 8 Sudoeste 19 Sur 0 819.6 -- 72
2020-09-16 00:00:00 12.8 9 Sur 13 Sur 0 819.6 -- 71
2020-09-15 23:00:00 12.9 8 Sudeste 14 Sur 0 819.6 -- 71
2020-09-15 22:00:00 13.2 11 Sur 21 Sur 0 819.5 -- 72
2020-09-15 21:00:00 13.8 13 Sur 25 Sudoeste 0 819 -- 71
2020-09-15 20:00:00 15.2 17 Sudoeste 31 Sudoeste 0 819 -- 64
2020-09-15 19:00:00 16.7 19 Sudoeste 34 Sudoeste 0 818.8 -- 58
2020-09-15 18:00:00 16.3 23 Sur 37 Sudoeste 0 819 -- 61
2020-09-15 17:00:00 16.9 19 Sudoeste 41 Sur 0 819.1 -- 64
2020-09-15 16:00:00 16.2 19 Sur 39 Sudoeste 0 819.3 -- 72
2020-09-15 15:00:00 17.1 20 Sur 40 Sur 0 819.4 -- 68
2020-09-15 14:00:00 15.9 19 Sur 40 Sur 0 819.5 -- 76
2020-09-15 13:00:00 14.3 15 Sudoeste 35 Sudoeste 0 819.9 -- 82
2020-09-15 12:00:00 14.3 11 Sur 29 Sudoeste 0 820 -- 85
2020-09-15 11:00:00 13 15 Sudoeste 26 Sudoeste 0 819.8 -- 88
2020-09-15 10:00:00 12.6 13 Sur 23 Sudoeste 0 819.5 -- 87
2020-09-15 09:00:00 11.9 13 Sur 22 Sudoeste 0 819.3 -- 85
2020-09-15 08:00:00 12.3 15 Sudoeste 32 Sudoeste 0 818.9 -- 83
2020-09-15 07:00:00 10.6 16 Sur 27 Sur 0 818.7 -- 92
2020-09-15 06:00:00 10.9 10 Sur 24 Sur 0 818.8 -- 92
2020-09-15 05:00:00 11.1 14 Sur 25 Sur 0 818.8 -- 94
2020-09-15 04:00:00 10.9 15 Sur 24 Sudeste 0.2 819 -- 93
2020-09-15 03:00:00 11 14 Sur 37 Este 7.6 819.1 -- 91
2020-09-15 02:00:00 13.6 10 Sur 33 Sur 0 819.2 -- 69
2020-09-15 01:00:00 14 17 Sudeste 40 Sudeste 0 819.2 -- 65
2020-09-15 00:00:00 13.6 22 Sudeste 53 Sudeste 0.2 819.3 -- 68
2020-09-14 23:00:00 14.2 22 Sudeste 49 Sur 0 818.8 -- 62
2020-09-14 22:00:00 13.7 24 Sudeste 44 Sudeste 0.4 819.1 -- 69
2020-09-14 21:00:00 16.3 14 Sudeste 40 Sudeste 0 818.8 -- 51
2020-09-14 20:00:00 17 24 Sudeste 44 Sur 0 818.8 -- 51
2020-09-14 19:00:00 16.8 26 Sudeste 45 Sudeste 0 818.9 -- 51
2020-09-14 18:00:00 17.2 25 Sudeste 46 Sudeste 0 819.1 -- 52
2020-09-14 17:00:00 18.6 23 Sur 39 Sur 0 819.4 -- 45
2020-09-14 16:00:00 17.9 21 Sudeste 46 Sur 0 819.8 -- 49
2020-09-14 15:00:00 17.9 24 Sudeste 42 Sudeste 0 820.3 -- 50
2020-09-14 14:00:00 17 14 Sudeste 27 Este 0 820.5 -- 56
2020-09-14 13:00:00 16.2 16 Sudeste 31 Sudeste 0 820.6 -- 62
2020-09-14 12:00:00 14.7 20 Sudeste 30 Sur 0 820.6 -- 66
2020-09-14 11:00:00 14.3 6 Sudoeste 32 Sudeste 0 820.5 -- 69
2020-09-14 10:00:00 16.2 19 Sudeste 36 Sudeste 0 820.4 -- 54
2020-09-14 09:00:00 13.5 6 Este 29 Sudeste 0 820 -- 60
2020-09-14 08:00:00 12.2 17 Sudeste 46 Sudeste 0 819.7 -- 65
2020-09-14 07:00:00 12.7 31 Sudeste 57 Sudeste 0 819.3 -- 63
2020-09-14 06:00:00 13.2 30 Sudeste 65 Sur 0 819.5 -- 64
2020-09-14 05:00:00 13.7 39 Sur 72 Sur 0 819.8 -- 66
2020-09-14 04:00:00 13.6 38 Sudeste 66 Sur 0 820.4 -- 70
2020-09-14 03:00:00 13.6 34 Sudeste 58 Sudeste 0 820.9 -- 71
2020-09-14 02:00:00 14.4 36 Sudeste 58 Sudeste 0 821.4 -- 65
2020-09-14 01:00:00 15.2 35 Sudeste 56 Sudeste 0 821.4 -- 59
2020-09-14 00:00:00 16.5 29 Sudeste 49 Sudeste 0 821.4 -- 50
2020-09-13 23:00:00 17 24 Sudeste 42 Sudeste 0 821.5 -- 45
2020-09-13 22:00:00 17 22 Sur 37 Sur 0 821.5 -- 43
2020-09-13 21:00:00 17.2 22 Sur 36 Sudeste 0 821.1 -- 44
2020-09-13 20:00:00 18.4 14 Sur 42 Sur 0 820.9 -- 41
2020-09-13 19:00:00 20.7 17 Sur 40 Sudoeste 0 820.8 -- 35
2020-09-13 18:00:00 21.4 21 Sur 46 Sudoeste 0 820.9 -- 35
2020-09-13 17:00:00 20.4 21 Sur 51 Sur 0 821.1 -- 37
2020-09-13 16:00:00 22.4 22 Sudeste 42 Sudeste 0 821.3 -- 34
2020-09-13 15:00:00 21.5 19 Sudeste 33 Sudeste 0 821.6 -- 36
2020-09-13 14:00:00 23.7 15 Sudeste 35 Sudeste 0 821.6 -- 31
2020-09-13 13:00:00 23.4 15 Sudeste 32 Sudeste 0 821.9 -- 35
2020-09-13 12:00:00 22.9 13 Sudeste 31 Sudeste 0 821.8 -- 37
2020-09-13 11:00:00 20.6 14 Sudeste 26 Sudeste 0 821.5 -- 43
2020-09-13 10:00:00 18.6 17 Sur 30 Sudeste 0 821.1 -- 45
2020-09-13 09:00:00 15.5 16 Sur 30 Sur 0 820.7 -- 51
2020-09-13 08:00:00 13.7 20 Sur 32 Sudeste 0 820.4 -- 56
2020-09-13 07:00:00 13.9 21 Sudeste 37 Sudeste 0 820.1 -- 56
2020-09-13 06:00:00 14.7 21 Sudeste 38 Sudeste 0 819.9 -- 53
2020-09-13 05:00:00 14.9 22 Sudeste 36 Sudeste 0 819.9 -- 51
2020-09-13 04:00:00 14.8 21 Sudeste 34 Sudeste 0 819.9 -- 50
2020-09-13 03:00:00 15 16 Este 31 Este 0 819.8 -- 51
2020-09-13 02:00:00 15.5 10 Este 25 Sudeste 0 820 -- 43
2020-09-13 01:00:00 15.9 12 Sudeste 19 Sudeste 0 820.2 -- 42
2020-09-13 00:00:00 15.9 11 Sudeste 16 Sur 0 820.1 -- 42
2020-09-12 23:00:00 15.9 13 Sur 19 Sur 0 820 -- 42
2020-09-12 22:00:00 16.8 10 Sur 23 Sur 0 819.7 -- 40
2020-09-12 21:00:00 17.4 13 Sur 25 Sur 0 819.2 -- 40
2020-09-12 20:00:00 19.2 16 Sur 26 Sudoeste 0 818.8 -- 36
2020-09-12 19:00:00 21.8 9 Sudoeste 26 Sur 0 818.5 -- 33
2020-09-12 18:00:00 22.6 6 Sur 26 Sur 0 818.3 -- 31
2020-09-12 17:00:00 23.2 3 Nordeste 21 Sudoeste 0 818.3 -- 31
2020-09-12 16:00:00 23.7 14 Sudoeste 25 Sudoeste 0 818.4 -- 30
2020-09-12 15:00:00 21.6 12 Sudoeste 26 Sur 0 818.5 -- 34
2020-09-12 14:00:00 23.7 7 Sur 22 Sudoeste 0 818.7 -- 30
2020-09-12 13:00:00 23.2 10 Sur 24 Sur 0 818.6 -- 32
2020-09-12 12:00:00 22.9 11 Sur 25 Sur 0 818.4 -- 32
2020-09-12 11:00:00 21 3 Nordeste 9 Sudeste 0 818 -- 34
2020-09-12 10:00:00 18.1 5 Sur 10 Sur 0 817.6 -- 39
2020-09-12 09:00:00 15.2 4 Sudoeste 5 Sudoeste 0 817.3 -- 47
2020-09-12 08:00:00 14.6 3 Noroeste 12 Sur 0 816.7 -- 48
2020-09-12 07:00:00 14.6 4 Nordeste 6 Nordeste 0 816.3 -- 49
2020-09-12 06:00:00 15 4 Noroeste 10 Noroeste 0 816.2 -- 47
2020-09-12 05:00:00 14.6 6 Sudoeste 16 Sudoeste 0 816.1 -- 49
2020-09-12 04:00:00 14.8 4 Sur 13 Sur 0 816.2 -- 45
2020-09-12 03:00:00 14.5 10 Sur 19 Sur 0 816.3 -- 46
2020-09-12 02:00:00 14.7 12 Sur 18 Sur 0 816.3 -- 47
2020-09-12 01:00:00 15 12 Sudeste 21 Sudeste 0 816.3 -- 47
2020-09-12 00:00:00 15.1 14 Sudeste 24 Sudeste 0 816.2 -- 46
2020-09-11 23:00:00 14.4 7 Este 15 Este 0 816 -- 48
2020-09-11 22:00:00 15.2 8 Este 21 Nordeste 0 815.8 -- 45
2020-09-11 21:00:00 16.2 9 Norte 18 Norte 0 815.4 -- 43
2020-09-11 20:00:00 18 7 Norte 20 Noroeste 0 815.3 -- 37
2020-09-11 19:00:00 19.5 10 Norte 23 Noroeste 0 815.2 -- 34
2020-09-11 18:00:00 21.2 8 Noroeste 26 Noroeste 0 815.2 -- 33
2020-09-11 17:00:00 21.6 8 Norte 26 Noroeste 0 815.3 -- 32
2020-09-11 16:00:00 22.1 9 Norte 24 Noroeste 0 815.5 -- 32
2020-09-11 15:00:00 21.5 6 Noroeste 23 Noroeste 0 815.7 -- 34
2020-09-11 14:00:00 21.4 6 Noroeste 21 Noroeste 0 815.9 -- 32
2020-09-11 13:00:00 19.8 8 Noroeste 23 Noroeste 0 816.1 -- 34
2020-09-11 12:00:00 18.7 6 Noroeste 14 Norte 0 816.2 -- 37
2020-09-11 11:00:00 17.9 4 Noroeste 13 Noroeste 0 816 -- 38
2020-09-11 10:00:00 16.4 2 Noroeste 7 Nordeste 0 815.7 -- 42
2020-09-11 09:00:00 13.8 3 Noroeste 7 Noroeste 0 815.6 -- 49
2020-09-11 08:00:00 13.1 3 Norte 6 Oeste 0 815.3 -- 50
2020-09-11 07:00:00 13.2 4 Oeste 8 Sudoeste 0 815.3 -- 50
2020-09-11 06:00:00 12.9 6 Sudoeste 13 Sur 0 815.3 -- 52
2020-09-11 05:00:00 12.7 9 Sur 14 Sur 0 815.7 -- 53
2020-09-11 04:00:00 13.1 10 Sur 17 Sur 0 815.9 -- 51
2020-09-11 03:00:00 13.5 8 Sudoeste 13 Oeste 0 816.3 -- 48
2020-09-11 02:00:00 14.1 6 Oeste 8 Oeste 0 816.6 -- 45
2020-09-11 01:00:00 14.2 5 Oeste 6 Oeste 0 816.7 -- 45
2020-09-11 00:00:00 14.2 2 Nordeste 10 Norte 0 817.1 -- 45
2020-09-10 23:00:00 14.4 7 Norte 19 Norte 0 817 -- 44
2020-09-10 22:00:00 14.3 8 Nordeste 15 Norte 0 817.1 -- 46
2020-09-10 21:00:00 15.1 9 Noroeste 21 Noroeste 0 816.8 -- 45
2020-09-10 20:00:00 17.5 9 Noroeste 27 Noroeste 0 816.8 -- 40
2020-09-10 19:00:00 19.1 11 Noroeste 28 Noroeste 0 816.9 -- 35
2020-09-10 18:00:00 20.4 6 Norte 27 Noroeste 0 817 -- 34
2020-09-10 17:00:00 20.6 5 Noroeste 30 Noroeste 0 817.4 -- 36
2020-09-10 16:00:00 20.7 11 Noroeste 24 Noroeste 0 817.6 -- 36
2020-09-10 15:00:00 20 9 Norte 23 Oeste 0 818 -- 37
2020-09-10 14:00:00 19.5 6 Noroeste 22 Norte 0 818.3 -- 39
2020-09-10 13:00:00 18.6 9 Noroeste 22 Noroeste 0 818.6 -- 40
2020-09-10 12:00:00 18.4 4 Oeste 10 Noroeste 0 818.8 -- 39
2020-09-10 11:00:00 17.4 2 Noroeste 12 Este 0 818.7 -- 43
2020-09-10 10:00:00 15.7 6 Este 22 Nordeste 0 818.3 -- 45
2020-09-10 09:00:00 12.2 9 Este 15 Este 0 817.9 -- 51
2020-09-10 08:00:00 11.4 9 Nordeste 14 Nordeste 0 817.6 -- 51
2020-09-10 07:00:00 11.1 13 Nordeste 14 Norte 0 817.6 -- 57
2020-09-10 06:00:00 11.4 7 Norte 14 Norte 0 817.7 -- 56
2020-09-10 05:00:00 12 12 Norte 19 Norte 0 818.1 -- 53
2020-09-10 04:00:00 12.6 14 Norte 21 Norte 0 818.4 -- 50
2020-09-10 03:00:00 12.8 9 Nordeste 18 Norte 0 818.8 -- 49
2020-09-10 02:00:00 13.2 6 Norte 20 Norte 0 819.2 -- 47
2020-09-10 01:00:00 13.3 12 Norte 18 Nordeste 0 819.3 -- 46
2020-09-10 00:00:00 13.4 11 Norte 28 Noroeste 0 819.4 -- 43
2020-09-09 23:00:00 13.7 11 Norte 21 Norte 0 819.4 -- 41
2020-09-09 22:00:00 14.1 12 Norte 22 Norte 0 819.3 -- 41
2020-09-09 21:00:00 14.6 12 Norte 20 Norte 0 818.8 -- 40
2020-09-09 20:00:00 16.9 8 Noroeste 24 Noroeste 0 818.7 -- 35
2020-09-09 19:00:00 18.1 12 Noroeste 24 Noroeste 0 818.6 -- 32
2020-09-09 18:00:00 19.5 6 Noroeste 27 Noroeste 0 818.5 -- 32
2020-09-09 17:00:00 19.9 9 Norte 27 Norte 0 818.7 -- 31
2020-09-09 16:00:00 18.9 7 Oeste 27 Sudoeste 0 818.8 -- 39
2020-09-09 15:00:00 17.1 8 Sudoeste 21 Sudoeste 0 819 -- 43
2020-09-09 14:00:00 18.1 5 Norte 14 Norte 0 819.2 -- 38
2020-09-09 13:00:00 20 7 Sur 21 Sur 0 819.5 -- 38
2020-09-09 12:00:00 17.1 5 Sudoeste 14 Sudoeste 0 819.6 -- 43
2020-09-09 11:00:00 15.3 3 Noroeste 10 Noroeste 0 819.6 -- 40
2020-09-09 10:00:00 13.1 6 Noroeste 13 Noroeste 0 819.3 -- 44
2020-09-09 09:00:00 11.3 5 Norte 10 Norte 0 819.1 -- 48
2020-09-09 08:00:00 10.2 5 Norte 23 Sur 0 818.6 -- 51
2020-09-09 07:00:00 9.2 9 Sur 27 Sur 0 818.3 -- 69
2020-09-09 06:00:00 8.7 17 Sur 31 Sur 0 818.3 -- 65
2020-09-09 05:00:00 8.8 17 Sur 31 Sudeste 0 818.5 -- 63
2020-09-09 04:00:00 9.4 19 Sudeste 30 Sudeste 0 818.6 -- 58
2020-09-09 03:00:00 10.1 19 Sur 27 Sur 0 818.7 -- 51
2020-09-09 02:00:00 10.5 15 Sudeste 26 Sudeste 0 818.9 -- 51
2020-09-09 01:00:00 10.5 9 Este 27 Sudeste 0 819.3 -- 50
2020-09-09 00:00:00 11 17 Sudeste 28 Sudeste 0 819.3 -- 50
2020-09-08 23:00:00 10.8 18 Sudeste 27 Sudeste 0 819.4 -- 49
2020-09-08 22:00:00 11.1 23 Sudeste 32 Sudeste 0 819.2 -- 43
2020-09-08 21:00:00 11.4 17 Sudeste 24 Sudeste 0 819 -- 45
2020-09-08 20:00:00 13.4 15 Sudeste 32 Sur 0 818.8 -- 39
2020-09-08 19:00:00 15 13 Sudeste 32 Sur 0 818.7 -- 35
2020-09-08 18:00:00 16.4 15 Sudeste 27 Sudeste 0 818.5 -- 33
2020-09-08 17:00:00 18.2 10 Sur 26 Sur 0 818.5 -- 34
2020-09-08 16:00:00 18.2 11 Sudeste 35 Sur 0 818.8 -- 33
2020-09-08 15:00:00 18.2 11 Sur 31 Sudeste 0 818.8 -- 32
2020-09-08 14:00:00 18.5 11 Sur 25 Sur 0 818.8 -- 35
2020-09-08 13:00:00 16.6 8 Sur 27 Sudeste 0 818.9 -- 47
2020-09-08 12:00:00 14.9 15 Sudeste 36 Sudeste 0 818.8 -- 51
2020-09-08 11:00:00 12.9 19 Sudeste 32 Sudeste 0 818.6 -- 51
2020-09-08 10:00:00 11.8 8 Este 24 Sudeste 0 818.3 -- 33
2020-09-08 09:00:00 9 6 Sudeste 15 Sur 0 818 -- 31
2020-09-08 08:00:00 7.7 4 Sudeste 11 Sudeste 0 817.6 -- 39
2020-09-08 07:00:00 7.9 9 Este 15 Nordeste 0 817.4 -- 41
2020-09-08 06:00:00 8.1 7 Este 13 Nordeste 0 817.3 -- 41
2020-09-08 05:00:00 8.5 7 Nordeste 12 Este 0 817.4 -- 44
2020-09-08 04:00:00 8.9 6 Este 16 Nordeste 0 817.6 -- 44
2020-09-08 03:00:00 9.2 10 Nordeste 15 Norte 0 817.9 -- 44
2020-09-08 02:00:00 9.6 12 Norte 18 Norte 0 818.1 -- 54
2020-09-08 01:00:00 10 8 Noroeste 13 Noroeste 0 818.3 -- 56
2020-09-08 00:00:00 10.5 6 Noroeste 9 Noroeste 0 818.4 -- 53
2020-09-07 23:00:00 9.5 6 Sudeste 10 Sudeste 0 818.3 -- 52
2020-09-07 22:00:00 9.1 5 Oeste 16 Noroeste 0 818.3 -- 61
2020-09-07 21:00:00 10.3 10 Noroeste 28 Noroeste 0 817.9 -- 57
2020-09-07 20:00:00 13.6 12 Noroeste 28 Noroeste 0 817.7 -- 47
2020-09-07 19:00:00 15.2 15 Noroeste 31 Noroeste 0 817.4 -- 36
2020-09-07 18:00:00 16.2 12 Noroeste 33 Noroeste 0 817.2 -- 34
2020-09-07 17:00:00 16.4 10 Noroeste 26 Noroeste 0 817.1 -- 38
2020-09-07 16:00:00 16.4 6 Noroeste 24 Noroeste 0 817.1 -- 41
2020-09-07 15:00:00 16.1 6 Noroeste 23 Noroeste 0 817.3 -- 44
2020-09-07 14:00:00 14.6 6 Noroeste 20 Noroeste 0 817.2 -- 48
2020-09-07 13:00:00 13 8 Noroeste 20 Noroeste 0 817.1 -- 56
2020-09-07 12:00:00 11.9 7 Noroeste 24 Norte 0 816.8 -- 54
2020-09-07 11:00:00 12 12 Norte 29 Norte 0 816.5 -- 51
2020-09-07 10:00:00 10.2 13 Norte 30 Norte 0 816 -- 59
2020-09-07 09:00:00 9.2 19 Norte 32 Noroeste 0 815.6 -- 43
2020-09-07 08:00:00 7.5 20 Norte 29 Norte 0 815.4 -- 49
2020-09-07 07:00:00 9.1 16 Norte 26 Norte 0 815.2 -- 44
2020-09-07 06:00:00 9.8 17 Norte 26 Norte 0 815.3 -- 42
2020-09-07 05:00:00 10.4 18 Norte 27 Norte 0 815.6 -- 44
2020-09-07 04:00:00 11.5 18 Norte 23 Norte 0 815.9 -- 54
2020-09-07 03:00:00 11.8 17 Norte 28 Norte 0 816.3 -- 48
2020-09-07 02:00:00 12.6 23 Norte 30 Norte 0 816.6 -- 49
2020-09-07 01:00:00 13.5 18 Norte 28 Norte 0 816.7 -- 45
2020-09-07 00:00:00 13.7 18 Norte 26 Norte 0 816.9 -- 44
2020-09-06 23:00:00 13.4 22 Norte 31 Norte 0 817 -- 56
2020-09-06 22:00:00 14.2 15 Norte 22 Noroeste 0 816.8 -- 56
2020-09-06 21:00:00 14.6 17 Norte 27 Norte 0 816.5 -- 58
2020-09-06 20:00:00 17.6 8 Norte 29 Norte 0 816.5 -- 49
2020-09-06 19:00:00 19.6 10 Norte 32 Noroeste 0 816.4 -- 45
2020-09-06 18:00:00 21.7 9 Noroeste 36 Norte 0 816.4 -- 38
2020-09-06 17:00:00 21.5 9 Noroeste 38 Noroeste 0 816.6 -- 36
2020-09-06 16:00:00 20.9 10 Noroeste 28 Noroeste 0 816.9 -- 35
2020-09-06 15:00:00 20.6 4 Oeste 17 Noroeste 0 817.1 -- 40
2020-09-06 14:00:00 20.6 5 Noroeste 19 Norte 0 817.3 -- 44
2020-09-06 13:00:00 21.7 9 Oeste 21 Sur 0 817.4 -- 41
2020-09-06 12:00:00 22.5 10 Sur 23 Sur 0 817.5 -- 32
2020-09-06 11:00:00 20.7 13 Sudeste 23 Sur 0 817.3 -- 36
2020-09-06 10:00:00 18.3 15 Sudeste 28 Sur 0 817 -- 40
2020-09-06 09:00:00 15 21 Sur 30 Sur 0 816.9 -- 48
2020-09-06 08:00:00 13.3 20 Sur 33 Sudeste 0 816.7 -- 56
2020-09-06 07:00:00 13 20 Sur 35 Sur 0 816.6 -- 64
2020-09-06 06:00:00 13.3 19 Sur 31 Sur 0 816.8 -- 69
2020-09-06 05:00:00 13.1 21 Sur 33 Sudeste 0 817.2 -- 70
2020-09-06 04:00:00 14 21 Sur 31 Sur 0 817.5 -- 61
2020-09-06 03:00:00 14.5 14 Sudeste 39 Este 0 817.9 -- 60
2020-09-06 02:00:00 15.6 4 Este 21 Este 0 817.9 -- 48
2020-09-06 01:00:00 15.5 13 Este 29 Este 0 818.1 -- 47
2020-09-06 00:00:00 17.3 7 Sur 19 Sur 0 818 -- 40
2020-09-05 23:00:00 16.9 14 Sur 20 Sur 0 818.1 -- 42
2020-09-05 22:00:00 17.1 15 Sur 21 Sur 0 818 -- 42
2020-09-05 21:00:00 18.6 14 Sur 24 Sudoeste 0 817.8 -- 39
2020-09-05 20:00:00 21.2 12 Sur 26 Sur 0 817.8 -- 35
2020-09-05 19:00:00 23 16 Sur 25 Sudoeste 0 818 -- 33
2020-09-05 18:00:00 21.4 7 Sur 17 Sur 0 818.2 -- 35
2020-09-05 17:00:00 22 5 Sur 15 Sudeste 0 818.5 -- 34
2020-09-05 16:00:00 22.8 5 Noroeste 14 Sudoeste 0 819.1 -- 34
2020-09-05 15:00:00 22.7 8 Oeste 27 Sur 0 819.6 -- 38
2020-09-05 14:00:00 23.8 5 Sudeste 23 Sudoeste 0 819.7 -- 35
2020-09-05 13:00:00 23.8 11 Sur 23 Sur 0 819.9 -- 38
2020-09-05 12:00:00 22.3 7 Oeste 14 Norte 0 820 -- 33
2020-09-05 11:00:00 20.3 2 Noroeste 8 Norte 0 819.9 -- 36
2020-09-05 10:00:00 19.6 3 Norte 11 Este 0 819.7 -- 35
2020-09-05 09:00:00 16.2 3 Este 12 Este 0 819.5 -- 41
2020-09-05 08:00:00 15.2 6 Nordeste 17 Norte 0 819.4 -- 43
2020-09-05 07:00:00 15.8 12 Nordeste 18 Nordeste 0 819.2 -- 42
2020-09-05 06:00:00 15.9 8 Nordeste 15 Nordeste 0 819.3 -- 42
2020-09-05 05:00:00 15.1 6 Este 22 Sudeste 0 819.6 -- 44
2020-09-05 04:00:00 14.7 16 Sudeste 27 Sur 0 820 -- 44
2020-09-05 03:00:00 15.5 15 Sur 23 Sur 0 820.4 -- 40
2020-09-05 02:00:00 16.1 5 Este 11 Este 0 820.7 -- 45
2020-09-05 01:00:00 16.2 7 Este 18 Sudeste 0 821 -- 47
2020-09-05 00:00:00 16.4 11 Sudeste 19 Sudeste 0 821.1 -- 44
2020-09-04 23:00:00 15.8 14 Sur 21 Sur 0 821.3 -- 42
2020-09-04 22:00:00 16 15 Sur 27 Sur 0 821.3 -- 43
2020-09-04 21:00:00 17 15 Sur 29 Sudoeste 0 820.9 -- 42
2020-09-04 20:00:00 20.5 17 Sur 30 Sudoeste 0 820.8 -- 35
2020-09-04 19:00:00 22 13 Sur 32 Sur 0 820.9 -- 34
2020-09-04 18:00:00 22.7 15 Sur 38 Sudoeste 0 821 -- 34
2020-09-04 17:00:00 23.3 14 Sur 33 Sur 0 821.1 -- 34
2020-09-04 16:00:00 23.4 13 Sur 31 Sur 0 821.7 -- 34
2020-09-04 15:00:00 23.9 14 Sudeste 27 Sur 0 822.1 -- 35
2020-09-04 14:00:00 23.5 7 Sudeste 29 Sudeste 0 822.3 -- 38
2020-09-04 13:00:00 22.1 12 Sur 30 Sur 0 822.6 -- 42
2020-09-04 12:00:00 21.7 13 Sudeste 30 Sur 0 822.6 -- 46
2020-09-04 11:00:00 20.1 17 Sur 31 Sur 0 822.4 -- 49
2020-09-04 10:00:00 17.4 21 Sur 33 Sur 0 821.9 -- 57
2020-09-04 09:00:00 13.8 21 Sur 32 Sur 0 821.5 -- 69
2020-09-04 08:00:00 11.7 23 Sur 38 Sur 0 821.2 -- 79
2020-09-04 07:00:00 12.1 22 Sur 39 Sur 0 820.9 -- 78
2020-09-04 06:00:00 12.8 23 Sur 39 Sur 0 821 -- 63
2020-09-04 05:00:00 13.6 20 Sur 38 Sudeste 0 820.8 -- 54
2020-09-04 04:00:00 14.5 25 Sudeste 44 Sudeste 0 820.9 -- 45
2020-09-04 03:00:00 15.5 18 Sur 34 Sudeste 0 821.2 -- 38
2020-09-04 02:00:00 15.2 10 Sur 17 Sur 0 821.6 -- 39
2020-09-04 01:00:00 15.6 12 Sur 16 Sur 0 821.7 -- 40
2020-09-04 00:00:00 15.6 10 Sudeste 18 Sur 0 821.7 -- 40
2020-09-03 23:00:00 15.5 13 Sudeste 23 Sur 0 821.7 -- 42
2020-09-03 22:00:00 15.9 14 Sur 21 Sur 0 821.5 -- 43
2020-09-03 21:00:00 16.8 15 Sur 24 Sudeste 0 820.9 -- 42
2020-09-03 20:00:00 19.9 10 Sur 22 Sudoeste 0 820.5 -- 37
2020-09-03 19:00:00 21.9 14 Sudoeste 24 Sudoeste 0 820.4 -- 33
2020-09-03 18:00:00 22.7 5 Sur 23 Sudoeste 0 820.1 -- 32
2020-09-03 17:00:00 23.3 11 Sur 26 Sur 0 820.1 -- 31
2020-09-03 16:00:00 23.1 8 Sur 24 Sudeste 0 820.2 -- 30
2020-09-03 15:00:00 22.8 4 Nordeste 18 Norte 0 820.3 -- 28
2020-09-03 14:00:00 21.2 5 Noroeste 17 Noroeste 0 820.3 -- 28
2020-09-03 13:00:00 20.4 5 Noroeste 16 Noroeste 0 820.3 -- 30
2020-09-03 12:00:00 19.8 4 Norte 11 Noroeste 0 820.1 -- 32
2020-09-03 11:00:00 18.4 0 Calma 8 Norte 0 819.9 -- 36
2020-09-03 10:00:00 15.7 4 Norte 7 Norte 0 819.3 -- 37
2020-09-03 09:00:00 13 3 Oeste 7 Sur 0 819 -- 44
2020-09-03 08:00:00 11.9 3 Este 5 Este 0 818.4 -- 50
2020-09-03 07:00:00 12.1 3 Oeste 6 Sudoeste 0 818.1 -- 49
2020-09-03 06:00:00 12.3 5 Oeste 9 Noroeste 0 818 -- 48
2020-09-03 05:00:00 12.8 3 Noroeste 11 Sur 0 818 -- 44
2020-09-03 04:00:00 12 10 Sur 21 Sur 0 817.9 -- 47
2020-09-03 03:00:00 12.4 15 Sur 22 Sur 0 817.9 -- 45
2020-09-03 02:00:00 13.2 4 Sur 12 Sur 0 817.9 -- 45
2020-09-03 01:00:00 13.1 3 Noroeste 5 Norte 0 817.9 -- 42
2020-09-03 00:00:00 12.9 4 Norte 8 Noroeste 0 817.9 -- 43
2020-09-02 23:00:00 13.3 8 Nordeste 16 Norte 0 817.8 -- 42
2020-09-02 22:00:00 13.6 12 Norte 18 Norte 0 817.6 -- 42
2020-09-02 21:00:00 14.4 14 Norte 21 Noroeste 0 817.1 -- 42
2020-09-02 20:00:00 16.9 9 Noroeste 24 Norte 0 816.6 -- 38
2020-09-02 19:00:00 17.9 9 Noroeste 26 Norte 0 816.2 -- 37
2020-09-02 18:00:00 19.3 11 Noroeste 25 Oeste 0 815.9 -- 32
2020-09-02 17:00:00 19 12 Norte 28 Noroeste 0 815.7 -- 33
2020-09-02 16:00:00 18.9 10 Norte 27 Norte 0 815.7 -- 34
2020-09-02 15:00:00 18.7 8 Norte 27 Noroeste 0 815.7 -- 35
2020-09-02 14:00:00 17.9 10 Noroeste 23 Noroeste 0 815.7 -- 35
2020-09-02 13:00:00 17.3 9 Noroeste 24 Noroeste 0 815.5 -- 35
2020-09-02 12:00:00 16.4 8 Noroeste 24 Noroeste 0 815.6 -- 35
2020-09-02 11:00:00 15.9 4 Noroeste 17 Noroeste 0 815.1 -- 37
2020-09-02 10:00:00 14.9 3 Sudeste 13 Nordeste 0 814.5 -- 40
2020-09-02 09:00:00 11.7 5 Este 11 Nordeste 0 814.2 -- 47
2020-09-02 08:00:00 10.2 6 Nordeste 13 Nordeste 0 813.9 -- 46
2020-09-02 07:00:00 10.4 8 Nordeste 12 Nordeste 0 813.6 -- 44
2020-09-02 06:00:00 11.2 5 Noroeste 8 Noroeste 0 813.3 -- 41
2020-09-02 05:00:00 11.2 7 Noroeste 8 Norte 0 813.1 -- 41
2020-09-02 04:00:00 10.4 5 Nordeste 12 Nordeste 0 813.1 -- 43
2020-09-02 03:00:00 11.4 3 Norte 8 Nordeste 0 813 -- 40
2020-09-02 02:00:00 10.3 7 Este 30 Nordeste 0 813.2 -- 43
2020-09-02 01:00:00 10.2 9 Este 23 Este 0 813 -- 44
2020-09-02 00:00:00 10.9 10 Este 22 Este 0 812.8 -- 42
2020-09-01 23:00:00 11.6 9 Este 17 Este 0 812.8 -- 39
2020-09-01 22:00:00 12.8 9 Norte 18 Norte 0 812.8 -- 34
2020-09-01 21:00:00 13.9 7 Norte 14 Noroeste 0 812.5 -- 30
2020-09-01 20:00:00 15.2 7 Noroeste 18 Noroeste 0 812.2 -- 28
2020-09-01 19:00:00 16.1 7 Noroeste 24 Norte 0 812.1 -- 27
2020-09-01 18:00:00 16.5 8 Norte 25 Norte 0 812 -- 27
2020-09-01 17:00:00 17.6 8 Noroeste 23 Norte 0 812 -- 25
2020-09-01 16:00:00 18.2 9 Norte 22 Noroeste 0 812.3 -- 24
2020-09-01 15:00:00 16.1 6 Oeste 19 Noroeste 0 812.7 -- 30
2020-09-01 14:00:00 16.8 5 Noroeste 16 Noroeste 0 812.8 -- 31
2020-09-01 13:00:00 14.4 5 Noroeste 16 Noroeste 0 813.1 -- 38
2020-09-01 12:00:00 13.6 4 Oeste 10 Oeste 0 813.3 -- 39
2020-09-01 11:00:00 12.8 2 Noroeste 9 Noroeste 0 813.3 -- 42
2020-09-01 10:00:00 11.5 4 Noroeste 11 Noroeste 0 813.2 -- 44
2020-09-01 09:00:00 10.7 3 Oeste 17 Oeste 0 813 -- 41
2020-09-01 08:00:00 10.2 6 Nordeste 13 Nordeste 0 813 -- 43
2020-09-01 07:00:00 10.3 5 Noroeste 11 Noroeste 0 813.4 -- 39
2020-09-01 06:00:00 10.6 3 Norte 13 Oeste 0 813.3 -- 37
2020-09-01 05:00:00 10.5 3 Oeste 14 Oeste 0 813.7 -- 37
2020-09-01 04:00:00 10.5 8 Sudoeste 14 Sudoeste 0 814.2 -- 38
2020-09-01 03:00:00 10.5 7 Sur 14 Sudeste 0 814.4 -- 38
2020-09-01 02:00:00 10.3 6 Sudeste 14 Noroeste 0 814.8 -- 38
2020-09-01 01:00:00 10.7 7 Noroeste 12 Noroeste 0 815 -- 37
2020-09-01 00:00:00 10.6 4 Noroeste 10 Norte 0 815.2 -- 38
2020-08-31 23:00:00 10.2 5 Nordeste 15 Norte 0 815.2 -- 40
2020-08-31 22:00:00 10.3 10 Norte 14 Norte 0 815.2 -- 40
2020-08-31 21:00:00 11.4 8 Norte 19 Noroeste 0 815 -- 39
2020-08-31 20:00:00 14.2 7 Noroeste 19 Noroeste 0 815.1 -- 35
2020-08-31 19:00:00 15 9 Noroeste 26 Oeste 0 815.1 -- 32
2020-08-31 18:00:00 16.1 8 Noroeste 21 Noroeste 0 815.4 -- 31
2020-08-31 17:00:00 16.7 6 Noroeste 21 Norte 0 815.5 -- 31
2020-08-31 16:00:00 15.3 8 Noroeste 19 Norte 0 815.7 -- 35
2020-08-31 15:00:00 15.9 6 Norte 22 Oeste 0 816.1 -- 34
2020-08-31 14:00:00 16.1 4 Norte 21 Sudoeste 0 816.1 -- 36
2020-08-31 13:00:00 15.7 9 Sur 19 Sur 0 816.1 -- 36
2020-08-31 12:00:00 14.2 5 Oeste 19 Sur 0 816.1 -- 41
2020-08-31 11:00:00 12.7 8 Sur 20 Sur 0 815.8 -- 42
2020-08-31 10:00:00 10.2 4 Sudoeste 14 Sur 0 815.5 -- 47
2020-08-31 09:00:00 7.7 8 Sur 19 Sur 0 815.2 -- 54
2020-08-31 08:00:00 5.4 8 Sudoeste 16 Sudoeste 0 814.9 -- 61
2020-08-31 07:00:00 5.7 4 Oeste 6 Oeste 0 814.6 -- 55
2020-08-31 06:00:00 5.1 0 Calma 7 Norte 0 814.5 -- 54
2020-08-31 05:00:00 5.1 6 Norte 10 Norte 0 814.7 -- 56
2020-08-31 04:00:00 5.2 6 Norte 10 Norte 0 814.9 -- 56
2020-08-31 03:00:00 5.2 5 Noroeste 13 Oeste 0 815.1 -- 54
2020-08-31 02:00:00 5.4 9 Oeste 12 Oeste 0 814.9 -- 52
2020-08-31 01:00:00 5.7 4 Noroeste 8 Oeste 0 815 -- 53
2020-08-31 00:00:00 5.2 6 Nordeste 13 Nordeste 0 814.9 -- 57
2020-08-30 23:00:00 5.6 6 Norte 20 Norte 0 814.5 -- 60
2020-08-30 22:00:00 5.9 13 Norte 21 Norte 0 814 -- 62
2020-08-30 21:00:00 6.4 12 Norte 25 Noroeste 0 813.5 -- 62
2020-08-30 20:00:00 8.8 11 Noroeste 26 Noroeste 0 813.2 -- 54
2020-08-30 19:00:00 10.1 9 Norte 27 Noroeste 0 812.7 -- 51
2020-08-30 18:00:00 11.3 10 Norte 30 Noroeste 0 812.5 -- 46
2020-08-30 17:00:00 11.6 12 Noroeste 33 Noroeste 0 812.2 -- 50
2020-08-30 16:00:00 11.4 8 Noroeste 30 Norte 0 812.3 -- 53
2020-08-30 15:00:00 9.6 10 Noroeste 28 Norte 0 812.3 -- 57
2020-08-30 14:00:00 9.6 10 Noroeste 27 Noroeste 0 812.3 -- 62
2020-08-30 13:00:00 7.9 11 Noroeste 24 Noroeste 0 812.1 -- 66
2020-08-30 12:00:00 6.5 9 Noroeste 20 Norte 0 811.9 -- 76
2020-08-30 11:00:00 5.7 10 Noroeste 21 Norte 0 811.5 -- 81
2020-08-30 10:00:00 4 10 Noroeste 23 Norte 0 810.9 -- 85
2020-08-30 09:00:00 3.6 13 Norte 24 Norte 0 810.5 -- 82
2020-08-30 08:00:00 1.7 15 Norte 26 Norte 0 810.2 -- 94
2020-08-30 07:00:00 1.5 10 Norte 23 Norte 0 809.9 -- 96
2020-08-30 06:00:00 1.9 16 Norte 29 Norte 0 809.7 -- 92
2020-08-30 05:00:00 2.4 17 Norte 34 Norte 0 809.8 -- 85
2020-08-30 04:00:00 2.4 21 Norte 33 Norte 0 809.7 -- 84
2020-08-30 03:00:00 2.3 22 Norte 37 Norte 0 809.9 -- 90
2020-08-30 02:00:00 1.7 18 Norte 39 Norte 0 810 -- 98
2020-08-30 01:00:00 2.6 21 Norte 37 Norte 0 809.9 -- 98
2020-08-30 00:00:00 4 23 Norte 31 Norte 0 809.7 -- 93
2020-08-29 23:00:00 4.8 17 Norte 34 Norte 0 809.5 -- 90
2020-08-29 22:00:00 5.8 15 Norte 38 Norte 0 809 -- 84
2020-08-29 21:00:00 7 16 Norte 37 Norte 0 808.4 -- 76
2020-08-29 20:00:00 8 14 Noroeste 40 Norte 0 807.9 -- 63
2020-08-29 19:00:00 9.8 18 Noroeste 45 Noroeste 0 807.7 -- 56
2020-08-29 18:00:00 11.3 15 Norte 41 Noroeste 0 807.3 -- 55
2020-08-29 17:00:00 9.1 17 Noroeste 48 Noroeste 0 807.2 -- 67
2020-08-29 16:00:00 11.1 17 Noroeste 52 Noroeste 0 807.2 -- 57
2020-08-29 15:00:00 9.4 15 Norte 33 Norte 0 807.2 -- 66
2020-08-29 14:00:00 7.5 13 Norte 34 Noroeste 0 807.2 -- 73
2020-08-29 13:00:00 7.6 15 Norte 32 Norte 0 807.1 -- 73
2020-08-29 12:00:00 6.7 14 Norte 32 Norte 0 806.9 -- 80
2020-08-29 11:00:00 4.3 15 Norte 42 Norte 0 806.6 -- 92
2020-08-29 10:00:00 3.7 17 Norte 37 Norte 0 806.1 -- 92
2020-08-29 09:00:00 3.5 20 Norte 42 Nordeste 0 805.7 -- 91
2020-08-29 08:00:00 2.8 20 Norte 38 Norte 0 805.6 -- 100
2020-08-29 07:00:00 3.3 18 Norte 36 Norte 0 805.6 -- 96
2020-08-29 06:00:00 3.4 18 Norte 32 Norte 0 805.6 -- 94
2020-08-29 05:00:00 4.4 15 Norte 35 Norte 0 805.9 -- 99
2020-08-29 04:00:00 5.2 18 Norte 34 Norte 0 806.3 -- 97
2020-08-29 03:00:00 6.2 10 Norte 26 Norte 0 806.7 -- 100
2020-08-29 02:00:00 6.9 15 Norte 27 Norte 0 807 -- 98
2020-08-29 01:00:00 7.4 12 Norte 34 Noroeste 0 807.3 -- 75
2020-08-29 00:00:00 8.8 12 Noroeste 43 Noroeste 0 808 -- 67
2020-08-28 23:00:00 10.6 15 Noroeste 40 Noroeste 0 808.3 -- 56
2020-08-28 22:00:00 11.8 12 Noroeste 40 Norte 0 808.4 -- 41
2020-08-28 21:00:00 13 13 Noroeste 46 Norte 0 808 -- 33
2020-08-28 20:00:00 15.5 14 Noroeste 37 Noroeste 0 808 -- 27
2020-08-28 19:00:00 18 12 Noroeste 32 Noroeste 0 808.5 -- 25
2020-08-28 18:00:00 18.9 13 Noroeste 35 Norte 0 809 -- 24
2020-08-28 17:00:00 18.5 14 Noroeste 37 Noroeste 0 809.3 -- 38
2020-08-28 16:00:00 19 14 Noroeste 34 Noroeste 0 809.8 -- 45
2020-08-28 15:00:00 18.1 16 Norte 31 Norte 0 810.3 -- 53
2020-08-28 14:00:00 17.9 9 Noroeste 27 Noroeste 0 810.8 -- 64
2020-08-28 13:00:00 15.6 4 Norte 18 Norte 0 811.2 -- 73
2020-08-28 12:00:00 16.9 5 Noroeste 15 Norte 0 811.8 -- 68
2020-08-28 11:00:00 16.1 4 Nordeste 11 Norte 0 811.7 -- 61
2020-08-28 10:00:00 15.9 4 Nordeste 11 Este 0 811.6 -- 75
2020-08-28 09:00:00 12.5 8 Noroeste 15 Noroeste 0 811.9 -- 89
2020-08-28 08:00:00 11.7 5 Nordeste 17 Norte 0 812.2 -- 95
2020-08-28 07:00:00 11.2 7 Nordeste 13 Noroeste 0 812.6 -- 94
2020-08-28 06:00:00 12 10 Nordeste 20 Norte 0 813.1 -- 84
2020-08-28 05:00:00 14.2 6 Noroeste 15 Noroeste 0 813.7 -- 52
2020-08-28 04:00:00 14.6 6 Noroeste 13 Norte 0 814.2 -- 61
2020-08-28 03:00:00 14.3 8 Norte 14 Norte 0 814.9 -- 69
2020-08-28 02:00:00 15.1 9 Norte 24 Norte 0 815.9 -- 56
2020-08-28 01:00:00 16.1 11 Norte 26 Norte 0 816.2 -- 51
2020-08-28 00:00:00 17.7 9 Noroeste 19 Noroeste 0 816.5 -- 47
2020-08-27 23:00:00 18.8 7 Noroeste 15 Noroeste 0 816.6 -- 42
2020-08-27 22:00:00 19 10 Norte 21 Noroeste 0 816.8 -- 40
2020-08-27 21:00:00 20.4 7 Noroeste 21 Noroeste 0 816.9 -- 35
2020-08-27 20:00:00 22.6 11 Noroeste 22 Noroeste 0 817 -- 30
2020-08-27 19:00:00 24.4 9 Noroeste 27 Noroeste 0 817.3 -- 28
2020-08-27 18:00:00 25.5 8 Noroeste 26 Noroeste 0 817.8 -- 26
2020-08-27 17:00:00 25.7 10 Noroeste 36 Oeste 0 818 -- 24
2020-08-27 16:00:00 26 11 Noroeste 31 Noroeste 0 818.6 -- 22
2020-08-27 15:00:00 24.9 8 Noroeste 22 Norte 0 819.2 -- 31
2020-08-27 14:00:00 24.5 5 Oeste 25 Noroeste 0 819.5 -- 37
2020-08-27 13:00:00 23.5 9 Noroeste 22 Noroeste 0 819.7 -- 42
2020-08-27 12:00:00 23 4 Norte 14 Nordeste 0 819.8 -- 37
2020-08-27 11:00:00 21.7 7 Norte 11 Norte 0 819.7 -- 36
2020-08-27 10:00:00 20.3 4 Noroeste 8 Noroeste 0 819.5 -- 36
2020-08-27 09:00:00 18 3 Norte 10 Noroeste 0 819.5 -- 42
2020-08-27 08:00:00 16.3 9 Noroeste 13 Noroeste 0 819.4 -- 49
2020-08-27 07:00:00 16.6 5 Nordeste 9 Norte 0 819.3 -- 41
2020-08-27 06:00:00 17.3 6 Norte 10 Norte 0 819.3 -- 39
2020-08-27 05:00:00 17.9 7 Norte 8 Norte 0 819.7 -- 37
2020-08-27 04:00:00 18.2 4 Noroeste 11 Norte 0 819.8 -- 36
2020-08-27 03:00:00 18.2 9 Norte 13 Norte 0 820.2 -- 35
2020-08-27 02:00:00 18.4 11 Norte 15 Norte 0 820.5 -- 35
2020-08-27 01:00:00 18.7 6 Noroeste 13 Norte 0 820.9 -- 36
2020-08-27 00:00:00 18.6 10 Norte 15 Norte 0 821 -- 35
2020-08-26 23:00:00 19.1 12 Norte 20 Norte 0 821.1 -- 37
2020-08-26 22:00:00 19.4 12 Norte 23 Noroeste 0 820.8 -- 37
2020-08-26 21:00:00 20.9 9 Noroeste 22 Noroeste 0 820.2 -- 35
2020-08-26 20:00:00 24 9 Noroeste 22 Noroeste 0 820 -- 32
2020-08-26 19:00:00 24.8 7 Noroeste 24 Noroeste 0 820.1 -- 30
2020-08-26 18:00:00 26.2 10 Noroeste 25 Noroeste 0 820 -- 29
2020-08-26 17:00:00 27.2 7 Sudoeste 27 Sur 0 820 -- 25
2020-08-26 16:00:00 27.4 12 Sur 28 Sudoeste 0 820.3 -- 25
2020-08-26 15:00:00 26.9 10 Sudoeste 31 Sudoeste 0 820.3 -- 26
2020-08-26 14:00:00 26.1 15 Sudoeste 30 Sudoeste 0 820.4 -- 27
2020-08-26 13:00:00 25.5 6 Noroeste 24 Oeste 0 820.5 -- 28
2020-08-26 12:00:00 24.6 12 Sudoeste 26 Sudoeste 0 820.5 -- 29
2020-08-26 11:00:00 23.1 11 Oeste 26 Sudoeste 0 820.1 -- 30
2020-08-26 10:00:00 21 14 Oeste 30 Oeste 0 819.6 -- 32
2020-08-26 09:00:00 19.4 15 Oeste 28 Oeste 0 819.4 -- 31
2020-08-26 08:00:00 18.3 15 Oeste 30 Oeste 0 819 -- 34
2020-08-26 07:00:00 18.4 13 Sudoeste 22 Sur 0 818.8 -- 35
2020-08-26 06:00:00 18.7 17 Sur 23 Sudoeste 0 818.7 -- 35
2020-08-26 05:00:00 17 3 Este 9 Noroeste 0 818.8 -- 34
2020-08-26 04:00:00 17.6 5 Noroeste 8 Noroeste 0 819 -- 34
2020-08-26 03:00:00 18 4 Noroeste 7 Norte 0 819.2 -- 35
2020-08-26 02:00:00 18.3 6 Noroeste 15 Noroeste 0 819.2 -- 35
2020-08-26 01:00:00 18.9 10 Noroeste 15 Noroeste 0 819.3 -- 34
2020-08-26 00:00:00 19.7 7 Nordeste 13 Noroeste 0 819.2 -- 34
2020-08-25 23:00:00 19.9 9 Noroeste 14 Noroeste 0 819.1 -- 34
2020-08-25 22:00:00 20.2 9 Sudoeste 20 Sudoeste 0 818.6 -- 32
2020-08-25 21:00:00 21.4 12 Sudoeste 22 Sudoeste 0 817.9 -- 31
2020-08-25 20:00:00 24.2 9 Sudoeste 24 Sudoeste 0 817.7 -- 28
2020-08-25 19:00:00 26 9 Sudoeste 22 Sudoeste 0 817.8 -- 28
2020-08-25 18:00:00 26.6 9 Sur 31 Sudoeste 0 817.6 -- 29
2020-08-25 17:00:00 26.9 10 Sudoeste 30 Sudoeste 0 817.7 -- 28
2020-08-25 16:00:00 26.4 13 Sudoeste 29 Sudoeste 0 817.8 -- 29
2020-08-25 15:00:00 25.8 12 Noroeste 32 Noroeste 0 817.9 -- 29
2020-08-25 14:00:00 26 9 Sudoeste 23 Sudoeste 0 817.9 -- 29
2020-08-25 13:00:00 24.7 10 Sudoeste 30 Oeste 0 817.9 -- 30
2020-08-25 12:00:00 23.3 9 Oeste 27 Oeste 0 817.9 -- 31
2020-08-25 11:00:00 22.3 7 Sudoeste 18 Oeste 0 817.5 -- 36
2020-08-25 10:00:00 20.1 9 Sudoeste 25 Sudoeste 0 817.1 -- 38
2020-08-25 09:00:00 17.5 15 Sudoeste 26 Sudoeste 0 816.7 -- 46
2020-08-25 08:00:00 16.8 16 Sudoeste 23 Sudoeste 0 816.5 -- 48
2020-08-25 07:00:00 17.3 13 Sudoeste 29 Sudoeste 0 816.3 -- 44
2020-08-25 06:00:00 16.6 16 Sudoeste 24 Sudoeste 0 816.4 -- 50
2020-08-25 05:00:00 16.6 17 Sur 21 Sur 0 816.6 -- 52
2020-08-25 04:00:00 17.1 14 Sur 26 Sudoeste 0 816.6 -- 52
2020-08-25 03:00:00 17.2 13 Sudoeste 17 Sudoeste 0 816.6 -- 50
2020-08-25 02:00:00 17.3 12 Sur 18 Sur 0 816.9 -- 49
2020-08-25 01:00:00 16.9 13 Sur 16 Sur 0 817 -- 47
2020-08-25 00:00:00 17.2 4 Norte 8 Noroeste 0 817.2 -- 37
2020-08-24 23:00:00 17.6 6 Oeste 13 Noroeste 0 817.3 -- 37
2020-08-24 22:00:00 18.2 7 Noroeste 13 Noroeste 0 816.9 -- 35
2020-08-24 21:00:00 19.3 6 Noroeste 17 Noroeste 0 816.6 -- 33
2020-08-24 20:00:00 21.4 10 Noroeste 20 Noroeste 0 816.7 -- 30
2020-08-24 19:00:00 23 6 Oeste 15 Oeste 0 816.6 -- 29
2020-08-24 18:00:00 22.8 5 Norte 26 Noroeste 0 816.8 -- 29
2020-08-24 17:00:00 23.5 13 Noroeste 23 Noroeste 0 817.1 -- 29
2020-08-24 16:00:00 23.6 7 Norte 27 Norte 0 817.3 -- 32
2020-08-24 15:00:00 23.6 6 Noroeste 26 Noroeste 0 817.4 -- 32
2020-08-24 14:00:00 22.4 8 Norte 23 Sudoeste 0 817.5 -- 36
2020-08-24 13:00:00 22.5 10 Sur 18 Sur 0 817.7 -- 34
2020-08-24 12:00:00 20.4 5 Noroeste 15 Noroeste 0 817.8 -- 35
2020-08-24 11:00:00 20.5 6 Sur 14 Sur 0 817.6 -- 33
2020-08-24 10:00:00 17.2 3 Noroeste 13 Norte 0 817.6 -- 38
2020-08-24 09:00:00 15.1 4 Noroeste 7 Norte 0 817.5 -- 41
2020-08-24 08:00:00 13.8 3 Oeste 7 Oeste 0 817.3 -- 42
2020-08-24 07:00:00 13.8 6 Noroeste 13 Norte 0 817.2 -- 40
2020-08-24 06:00:00 13.9 4 Noroeste 10 Norte 0 817.3 -- 40
2020-08-24 05:00:00 14.2 5 Noroeste 9 Noroeste 0 817.6 -- 39
2020-08-24 04:00:00 14.7 5 Oeste 8 Noroeste 0 817.5 -- 37
2020-08-24 03:00:00 14.8 5 Oeste 10 Noroeste 0 818 -- 37
2020-08-24 02:00:00 15.3 8 Noroeste 10 Noroeste 0 818.4 -- 37
2020-08-24 01:00:00 15.6 4 Noroeste 8 Norte 0 818.5 -- 37
2020-08-24 00:00:00 15.7 4 Noroeste 7 Noroeste 0 818.6 -- 37
2020-08-23 23:00:00 15.8 3 Oeste 10 Norte 0 818.7 -- 38
2020-08-23 22:00:00 16.2 5 Noroeste 20 Norte 0 818.8 -- 37
2020-08-23 21:00:00 17.2 12 Norte 21 Noroeste 0 818.7 -- 35
2020-08-23 20:00:00 19.5 9 Noroeste 24 Noroeste 0 818.7 -- 33
2020-08-23 19:00:00 20.9 8 Noroeste 25 Norte 0 818.9 -- 31
2020-08-23 18:00:00 21.9 8 Noroeste 26 Noroeste 0 819 -- 29
2020-08-23 17:00:00 22.3 6 Norte 26 Noroeste 0 819.3 -- 28
2020-08-23 16:00:00 22.3 9 Noroeste 24 Oeste 0 819.7 -- 28
2020-08-23 15:00:00 22.5 6 Noroeste 19 Noroeste 0 819.9 -- 29
2020-08-23 14:00:00 20.9 5 Noroeste 23 Noroeste 0 820 -- 29
2020-08-23 13:00:00 19.6 8 Norte 18 Noroeste 0 820.4 -- 31
2020-08-23 12:00:00 19 4 Noroeste 11 Noroeste 0 820.4 -- 31
2020-08-23 11:00:00 17.5 4 Norte 8 Noroeste 0 820.3 -- 26
2020-08-23 10:00:00 16.4 2 Sudoeste 7 Nordeste 0 820 -- 35
2020-08-23 09:00:00 13.9 5 Noroeste 8 Noroeste 0 820 -- 39
2020-08-23 08:00:00 12.5 5 Noroeste 8 Norte 0 819.7 -- 43
2020-08-23 07:00:00 12.5 5 Nordeste 10 Norte 0 819.6 -- 47
2020-08-23 06:00:00 12.4 8 Norte 15 Norte 0 819.8 -- 47
2020-08-23 05:00:00 12.6 12 Norte 16 Norte 0 820.3 -- 42
2020-08-23 04:00:00 13.1 5 Noroeste 12 Norte 0 820.4 -- 40
2020-08-23 03:00:00 13.5 5 Norte 10 Norte 0 820.6 -- 39
2020-08-23 02:00:00 13.3 6 Norte 10 Norte 0 820.9 -- 40
2020-08-23 01:00:00 13 5 Noroeste 13 Noroeste 0 821 -- 40
2020-08-23 00:00:00 13.4 9 Noroeste 19 Noroeste 0 821.4 -- 41
2020-08-22 23:00:00 14.1 8 Noroeste 15 Norte 0 821.3 -- 41
2020-08-22 22:00:00 14.9 10 Norte 19 Norte 0 821.1 -- 38
2020-08-22 21:00:00 16.7 11 Norte 19 Noroeste 0 820.6 -- 33
2020-08-22 20:00:00 19.3 6 Noroeste 20 Noroeste 0 820.5 -- 27
2020-08-22 19:00:00 20.3 6 Noroeste 23 Norte 0 820.6 -- 27
2020-08-22 18:00:00 21.2 8 Noroeste 25 Norte 0 820.6 -- 34
2020-08-22 17:00:00 22 7 Noroeste 27 Noroeste 0 820.8 -- 38
2020-08-22 16:00:00 21.9 9 Noroeste 23 Noroeste 0 821 -- 41
2020-08-22 15:00:00 21 8 Noroeste 22 Noroeste 0 821.1 -- 47
2020-08-22 14:00:00 19.9 9 Noroeste 21 Noroeste 0 821.1 -- 51
2020-08-22 13:00:00 21 3 Noroeste 14 Noroeste 0 820.8 -- 49
2020-08-22 12:00:00 20.3 7 Sudoeste 23 Sur 0 820.5 -- 50
2020-08-22 11:00:00 18.9 4 Sudeste 12 Sur 0 820.3 -- 53
2020-08-22 10:00:00 16.9 4 Sudoeste 15 Sudeste 0 819.7 -- 47
2020-08-22 09:00:00 14.2 7 Sur 13 Sur 0 819.5 -- 50
2020-08-22 08:00:00 11.7 6 Sudoeste 13 Sur 0 819.1 -- 55
2020-08-22 07:00:00 12.1 3 Noroeste 12 Sudoeste 0 818.9 -- 66
2020-08-22 06:00:00 11.6 5 Sudoeste 18 Sur 0 818.4 -- 70
2020-08-22 05:00:00 11.4 6 Sudoeste 16 Sur 0 818.3 -- 82
2020-08-22 04:00:00 10.6 4 Nordeste 8 Oeste 0 818.4 -- 83
2020-08-22 03:00:00 10.7 5 Noroeste 14 Noroeste 0 818.6 -- 65
2020-08-22 02:00:00 11.4 6 Norte 23 Norte 0 818.8 -- 77
2020-08-22 01:00:00 13.5 4 Norte 13 Norte 0 818.7 -- 98
2020-08-22 00:00:00 13.7 7 Norte 18 Norte 0 818.5 -- 97
2020-08-21 23:00:00 14.2 9 Norte 18 Norte 0 818.4 -- 94
2020-08-21 22:00:00 14.4 7 Nordeste 13 Noroeste 0 818 -- 97
2020-08-21 21:00:00 15 6 Norte 15 Norte 0 817.5 -- 95
2020-08-21 20:00:00 15.8 6 Noroeste 16 Norte 0 817.2 -- 93
2020-08-21 19:00:00 17 6 Norte 18 Norte 0 816.8 -- 87
2020-08-21 18:00:00 18.3 3 Sur 33 Sudoeste 0 816.7 -- 79
2020-08-21 17:00:00 19.4 8 Oeste 41 Sudoeste 0 816.5 -- 63
2020-08-21 16:00:00 21.1 16 Sudoeste 37 Sudoeste 0 816.3 -- 57
2020-08-21 15:00:00 21.8 17 Sur 35 Sur 0 816.4 -- 52
2020-08-21 14:00:00 21.2 13 Sur 31 Sudoeste 0 816.3 -- 58
2020-08-21 13:00:00 20.3 17 Sudoeste 35 Sur 0 816 -- 63
2020-08-21 12:00:00 19.2 19 Sur 35 Sudoeste 0 815.7 -- 57
2020-08-21 11:00:00 18.6 17 Sudoeste 35 Sudoeste 0 815.3 -- 49
2020-08-21 10:00:00 17.1 25 Sudoeste 42 Sudoeste 0 814.7 -- 52
2020-08-21 09:00:00 16.2 30 Sudoeste 50 Sudoeste 0 814.4 -- 55
2020-08-21 08:00:00 15 27 Sudoeste 42 Sudoeste 0 813.8 -- 57
2020-08-21 07:00:00 15 23 Sudoeste 38 Sudoeste 0 813.3 -- 61
2020-08-21 06:00:00 15.9 24 Sudoeste 48 Sudoeste 0 813.1 -- 52
2020-08-21 05:00:00 15.9 22 Sudoeste 40 Sudoeste 0 813.2 -- 52
2020-08-21 04:00:00 15.9 21 Sudoeste 30 Sudoeste 0 813.2 -- 47
2020-08-21 03:00:00 16.8 24 Sudoeste 50 Sudoeste 0 813 -- 36
2020-08-21 02:00:00 15.8 6 Sur 45 Sudoeste 0 813.4 -- 44
2020-08-21 01:00:00 16.5 15 Oeste 39 Oeste 0 813.2 -- 33
2020-08-21 00:00:00 17.7 18 Oeste 39 Sudoeste 0 813.1 -- 27